TimeEST,TemperatureF,Dew PointF,Humidity,Sea Level PressureIn,VisibilityMPH,Wind Direction,Wind SpeedMPH,Gust SpeedMPH,PrecipitationIn,Events,Conditions,WindDirDegrees,DateUTC
12:51 AM,23.0,18.1,82,30.09,10.0,North,5.8,-,N/A,,Overcast,360,2012-03-02 05:51:00
1:51 AM,23.0,18.1,82,30.09,10.0,North,6.9,-,N/A,,Overcast,350,2012-03-02 06:51:00
2:51 AM,22.1,18.1,85,30.10,10.0,North,4.6,-,N/A,,Overcast,360,2012-03-02 07:51:00
3:51 AM,22.1,17.1,81,30.11,10.0,North,5.8,-,N/A,,Overcast,10,2012-03-02 08:51:00
4:51 AM,22.1,17.1,81,30.15,10.0,NE,5.8,-,N/A,,Overcast,40,2012-03-02 09:51:00
5:51 AM,21.0,17.1,85,30.15,10.0,Variable,4.6,-,N/A,,Overcast,0,2012-03-02 10:51:00
6:51 AM,20.1,17.1,88,30.18,10.0,North,4.6,-,N/A,,Overcast,10,2012-03-02 11:51:00
8:51 AM,20.1,16.2,85,30.19,10.0,Calm,Calm,-,N/A,,Overcast,0,2012-03-02 13:51:00
9:40 AM,21.2,17.6,86,30.17,10.0,Calm,Calm,-,N/A,,Overcast,0,2012-03-02 14:40:00
9:51 AM,22.1,17.1,81,30.20,10.0,Calm,Calm,-,N/A,,Overcast,0,2012-03-02 14:51:00
10:51 AM,22.1,17.1,81,30.19,10.0,Calm,Calm,-,N/A,,Overcast,0,2012-03-02 15:51:00
11:51 AM,24.1,19.0,81,30.19,10.0,Calm,Calm,-,N/A,,Overcast,0,2012-03-02 16:51:00
12:51 PM,25.2,20.1,81,30.17,10.0,Calm,Calm,-,N/A,,Overcast,0,2012-03-02 17:51:00
1:51 PM,27.1,22.1,81,30.17,10.0,Variable,3.5,-,N/A,,Overcast,0,2012-03-02 18:51:00
2:51 PM,28.0,23.0,81,30.15,10.0,South,3.5,-,N/A,,Overcast,170,2012-03-02 19:51:00
3:51 PM,29.1,23.0,78,30.14,10.0,SSE,5.8,-,N/A,,Overcast,150,2012-03-02 20:51:00
4:51 PM,29.1,24.1,81,30.14,10.0,SE,3.5,-,N/A,,Overcast,140,2012-03-02 21:51:00
5:51 PM,29.1,25.2,85,30.13,4.0,SE,3.5,-,N/A,,Overcast,140,2012-03-02 22:51:00
7:51 PM,30.0,26.1,85,30.11,5.0,SE,6.9,-,N/A,,Overcast,130,2012-03-03 00:51:00
8:51 PM,30.0,27.1,89,30.11,9.0,Calm,Calm,-,N/A,,Overcast,0,2012-03-03 01:51:00
9:51 PM,30.0,27.1,89,30.08,9.0,SE,4.6,-,N/A,,Overcast,140,2012-03-03 02:51:00
11:51 PM,30.0,27.1,89,30.01,9.0,Calm,Calm,-,N/A,,Overcast,0,2012-03-03 04:51:00